This is the latest recevied weather packets stored in our database for station/object OM5AST-13. If no packets are shown the sender has not sent any weather packets the latest 1 day(s).
| Time | Temp. | Humidity | Pressure | Rain* | Wind** | Luminosity | Snow |
|---|---|---|---|---|---|---|---|
| 1778006635 | 20° C | 48% | - | 0 mm | 0 m/s | 0 W/m² | - |
| 1778005435 | 20° C | 46% | - | 0 mm | 0 m/s | 0 W/m² | - |
| 1778004235 | 21.11° C | 43% | - | 0 mm | 0 m/s | 0 W/m² | - |
| 1778003035 | 22.78° C | 39% | - | 0 mm | 0 m/s | 0 W/m² | - |
| 1778001835 | 21.67° C | 40% | - | 0 mm | 0 m/s | 0 W/m² | - |
| 1778000636 | 22.22° C | 37% | - | 0 mm | 0 m/s | 0 W/m² | - |
| 1777999435 | 22.78° C | 36% | - | 0 mm | 0 m/s | 0 W/m² | - |
| 1777998235 | 24.44° C | 35% | - | 0 mm | 0 m/s | 0 W/m² | - |
| 1777997035 | 25° C | 34% | - | 0 mm | 0 m/s | 0 W/m² | - |
| 1777995835 | 25.56° C | 33% | - | 0 mm | 0 m/s | 0 W/m² | - |
| 1777994636 | 26.67° C | 32% | - | 0 mm | 0 m/s | 0 W/m² | - |
| 1777993435 | 27.22° C | 31% | - | 0 mm | 0 m/s | 0 W/m² | - |
| 1777992235 | 27.78° C | 30% | - | 0 mm | 0 m/s | 0 W/m² | - |
| 1777991035 | 28.33° C | 29% | - | 0 mm | 0 m/s | 0 W/m² | - |
| 1777989835 | 28.33° C | 29% | - | 0 mm | 0 m/s | 0 W/m² | - |
| 1777988636 | 28.33° C | 28% | - | 0 mm | 0 m/s | 0 W/m² | - |
| 1777987435 | 28.33° C | 27% | - | 0 mm | 0 m/s | 0 W/m² | - |
| 1777986235 | 27.78° C | 28% | - | 0 mm | 0 m/s | 0 W/m² | - |
| 1777985035 | 27.22° C | 29% | - | 0 mm | 0 m/s | 0 W/m² | - |
| 1777983835 | 26.67° C | 35% | - | 0 mm | 0 m/s | 0 W/m² | - |
| 1777982635 | 25.56° C | 34% | - | 0 mm | 0 m/s | 0 W/m² | - |
| 1777981435 | 25° C | 35% | - | 0 mm | 0 m/s | 0 W/m² | - |
| 1777980235 | 25° C | 34% | - | 0 mm | 0 m/s | 0 W/m² | - |
| 1777979036 | 24.44° C | 36% | - | 0 mm | 0 m/s | 0 W/m² | - |
| 1777977835 | 24.44° C | 34% | - | 0 mm | 0 m/s | 0 W/m² | - |
* Rain latest hour (hover to see other rain measurements)
** Current wind speed in m/s (hover to see current wind gust speed)